POE122 KBNA-KCHA

Flight info

Callsign POE122
Flight time 0h 32m
Altitude 17000
Route BNA140026
Aircraft E190/M-SDE3GILORVW/S

Departure

Time 2026-04-21 19:21
Airport Nashville International Airport (KBNA)

Arrival

Time 2026-04-21 19:54
Airport Chattanooga Metropolitan Airport (Lovell Field) (KCHA)
Time Latitude Longitude Altitude Speed Heading
2026-04-21 18:23 36.13277 -86.67299 572 ft 0 kts 111°
2026-04-21 19:04 36.13277 -86.67300 590 ft 1 kts 111°
2026-04-21 19:04 36.13283 -86.67316 573 ft 3 kts 121°
2026-04-21 19:04 36.13295 -86.67335 574 ft 3 kts 147°
2026-04-21 19:05 36.13312 -86.67344 572 ft 3 kts 179°
2026-04-21 19:05 36.13327 -86.67342 571 ft 1 kts 198°
2026-04-21 19:12 36.13326 -86.67342 570 ft 2 kts 198°
2026-04-21 19:12 36.13313 -86.67347 574 ft 4 kts 196°
2026-04-21 19:12 36.13248 -86.67358 572 ft 13 kts 177°
2026-04-21 19:13 36.13189 -86.67304 571 ft 8 kts 122°
2026-04-21 19:13 36.13179 -86.67260 572 ft 3 kts 99°
2026-04-21 19:13 36.13177 -86.67244 572 ft 3 kts 99°
2026-04-21 19:13 36.13167 -86.67186 574 ft 11 kts 105°
2026-04-21 19:14 36.13102 -86.67100 574 ft 16 kts 162°
2026-04-21 19:14 36.13007 -86.67128 575 ft 13 kts 224°
2026-04-21 19:14 36.12957 -86.67191 582 ft 7 kts 226°
2026-04-21 19:14 36.12931 -86.67218 578 ft 4 kts 216°
2026-04-21 19:15 36.12906 -86.67234 577 ft 6 kts 203°
2026-04-21 19:15 36.12851 -86.67276 579 ft 13 kts 220°
2026-04-21 19:15 36.12771 -86.67367 582 ft 15 kts 224°
2026-04-21 19:15 36.12706 -86.67437 585 ft 10 kts 213°
2026-04-21 19:16 36.12677 -86.67457 585 ft 0 kts 208°
2026-04-21 19:16 36.12675 -86.67459 585 ft 3 kts 208°
2026-04-21 19:16 36.12656 -86.67471 586 ft 2 kts 208°
2026-04-21 19:16 36.12643 -86.67480 586 ft 4 kts 208°
2026-04-21 19:17 36.12549 -86.67566 587 ft 12 kts 222°
2026-04-21 19:17 36.12493 -86.67633 589 ft 10 kts 222°
2026-04-21 19:17 36.12433 -86.67679 588 ft 10 kts 202°
2026-04-21 19:18 36.12371 -86.67710 587 ft 9 kts 218°
2026-04-21 19:18 36.12362 -86.67782 586 ft 9 kts 284°
2026-04-21 19:18 36.12380 -86.67848 585 ft 0 kts 290°
2026-04-21 19:20 36.12386 -86.67868 585 ft 7 kts 289°
2026-04-21 19:20 36.12390 -86.67959 584 ft 12 kts 238°
2026-04-21 19:21 36.12351 -86.67991 584 ft 0 kts 200°
2026-04-21 19:21 36.12214 -86.68047 581 ft 70 kts 198°
2026-04-21 19:21 36.11391 -86.68370 689 ft 169 kts 197°
2026-04-21 19:21 36.10100 -86.68880 1407 ft 202 kts 198°
2026-04-21 19:22 36.08828 -86.69364 2093 ft 182 kts 197°
2026-04-21 19:22 36.07659 -86.69778 2739 ft 168 kts 198°
2026-04-21 19:22 36.06522 -86.70285 3412 ft 179 kts 204°
2026-04-21 19:22 36.05342 -86.70842 4196 ft 184 kts 199°
2026-04-21 19:23 36.04095 -86.71246 5103 ft 186 kts 196°
2026-04-21 19:23 36.02834 -86.71575 6058 ft 186 kts 193°
2026-04-21 19:23 36.01656 -86.71769 6810 ft 154 kts 195°
2026-04-21 19:23 36.00570 -86.71976 7515 ft 169 kts 195°
2026-04-21 19:24 35.99370 -86.72228 8577 ft 179 kts 195°
2026-04-21 19:24 35.98137 -86.72478 9835 ft 179 kts 192°
2026-04-21 19:24 35.96864 -86.72265 10981 ft 195 kts 163°
2026-04-21 19:24 35.95479 -86.71357 11124 ft 253 kts 151°
2026-04-21 19:25 35.94231 -86.70014 11379 ft 226 kts 135°
2026-04-21 19:25 35.93407 -86.68369 11162 ft 217 kts 115°
2026-04-21 19:25 35.93054 -86.66774 11544 ft 173 kts 101°
2026-04-21 19:25 35.92851 -86.65159 11398 ft 230 kts 104°
2026-04-21 19:26 35.92536 -86.63102 11701 ft 239 kts 104°
2026-04-21 19:26 35.92155 -86.61164 11702 ft 244 kts 112°
2026-04-21 19:26 35.91498 -86.59239 12161 ft 240 kts 121°
2026-04-21 19:26 35.90699 -86.57435 12818 ft 239 kts 122°
2026-04-21 19:27 35.89889 -86.55641 13690 ft 240 kts 122°
2026-04-21 19:27 35.89047 -86.53850 14615 ft 250 kts 132°
2026-04-21 19:27 35.87721 -86.52463 15055 ft 249 kts 159°
2026-04-21 19:27 35.86105 -86.51886 15674 ft 239 kts 182°
2026-04-21 19:28 35.84478 -86.52037 16533 ft 234 kts 194°
2026-04-21 19:28 35.82811 -86.52513 16637 ft 251 kts 201°
2026-04-21 19:28 35.81222 -86.53248 16555 ft 244 kts 210°
2026-04-21 19:28 35.79757 -86.54253 16472 ft 239 kts 217°
2026-04-21 19:29 35.78430 -86.55461 16442 ft 236 kts 224°
2026-04-21 19:29 35.77252 -86.56856 16449 ft 233 kts 231°
2026-04-21 19:29 35.76238 -86.58396 16511 ft 232 kts 238°
2026-04-21 19:29 35.75395 -86.60075 16640 ft 229 kts 243°
2026-04-21 19:30 35.74456 -86.61694 16309 ft 242 kts 219°
2026-04-21 19:30 35.73150 -86.62969 15988 ft 240 kts 224°
2026-04-21 19:30 35.71915 -86.64356 15612 ft 240 kts 226°
2026-04-21 19:30 35.70730 -86.65747 15384 ft 230 kts 227°
2026-04-21 19:31 35.69620 -86.67075 15284 ft 222 kts 227°
2026-04-21 19:31 35.68512 -86.68407 15241 ft 224 kts 223°
2026-04-21 19:31 35.67189 -86.69448 15243 ft 229 kts 206°
2026-04-21 19:31 35.65615 -86.69699 15283 ft 234 kts 163°
2026-04-21 19:32 35.64289 -86.68610 15478 ft 235 kts 123°
2026-04-21 19:32 35.63497 -86.66856 15594 ft 235 kts 117°
2026-04-21 19:32 35.62839 -86.65015 15699 ft 236 kts 115°
2026-04-21 19:32 35.62215 -86.63152 15808 ft 236 kts 114°
2026-04-21 19:33 35.61808 -86.61913 15899 ft 235 kts 114°
2026-04-21 19:33 35.61011 -86.59438 16040 ft 236 kts 113°
2026-04-21 19:33 35.60356 -86.57410 16200 ft 277 kts 114°
2026-04-21 19:33 35.59606 -86.55122 16324 ft 292 kts 113°
2026-04-21 19:34 35.58849 -86.52816 16400 ft 290 kts 114°
2026-04-21 19:34 35.58089 -86.50525 16473 ft 290 kts 114°
2026-04-21 19:34 35.57313 -86.48232 16556 ft 291 kts 114°
2026-04-21 19:34 35.56527 -86.45946 16629 ft 291 kts 114°
2026-04-21 19:35 35.55735 -86.43659 16712 ft 291 kts 115°
2026-04-21 19:35 35.54069 -86.39140 16846 ft 290 kts 120°
2026-04-21 19:35 35.53080 -86.37022 16928 ft 290 kts 123°
2026-04-21 19:36 35.52021 -86.34915 17007 ft 290 kts 125°
2026-04-21 19:36 35.50904 -86.32851 17082 ft 290 kts 126°
2026-04-21 19:36 35.49769 -86.30806 17164 ft 290 kts 127°
2026-04-21 19:36 35.48615 -86.28776 17230 ft 290 kts 129°
2026-04-21 19:37 35.47311 -86.26908 17285 ft 287 kts 139°
2026-04-21 19:37 35.45776 -86.25383 17509 ft 283 kts 149°
2026-04-21 19:37 35.44126 -86.24022 17565 ft 293 kts 141°
2026-04-21 19:37 35.42701 -86.22235 17394 ft 291 kts 134°
2026-04-21 19:38 35.41410 -86.20376 17345 ft 290 kts 132°
2026-04-21 19:38 35.40138 -86.18461 17320 ft 290 kts 131°
2026-04-21 19:38 35.39285 -86.17157 17292 ft 291 kts 131°
2026-04-21 19:38 35.37718 -86.14455 16725 ft 296 kts 115°
2026-04-21 19:39 35.37033 -86.12082 16294 ft 295 kts 107°
2026-04-21 19:39 35.36504 -86.09668 15870 ft 292 kts 105°
2026-04-21 19:39 35.36025 -86.07260 15451 ft 290 kts 104°
2026-04-21 19:39 35.35565 -86.04862 15028 ft 288 kts 104°
2026-04-21 19:40 35.35118 -86.02476 14625 ft 286 kts 104°
2026-04-21 19:40 35.34676 -86.00107 14223 ft 284 kts 104°
2026-04-21 19:40 35.34235 -85.97759 13770 ft 282 kts 104°
2026-04-21 19:40 35.33804 -85.95483 13516 ft 272 kts 104°
2026-04-21 19:41 35.33388 -85.93266 13410 ft 265 kts 104°
2026-04-21 19:41 35.32976 -85.91058 13324 ft 268 kts 104°
2026-04-21 19:41 35.32559 -85.88832 13225 ft 268 kts 104°
2026-04-21 19:41 35.32143 -85.86607 13135 ft 269 kts 104°
2026-04-21 19:42 35.31718 -85.84376 13027 ft 269 kts 104°
2026-04-21 19:42 35.31295 -85.82140 12939 ft 270 kts 104°
2026-04-21 19:42 35.30880 -85.79925 12844 ft 270 kts 104°
2026-04-21 19:42 35.30459 -85.77687 12740 ft 269 kts 104°
2026-04-21 19:43 35.30036 -85.75451 12648 ft 271 kts 104°
2026-04-21 19:43 35.29607 -85.73203 12554 ft 271 kts 104°
2026-04-21 19:43 35.29180 -85.70968 12457 ft 270 kts 104°
2026-04-21 19:43 35.28750 -85.68726 12363 ft 271 kts 104°
2026-04-21 19:44 35.28315 -85.66484 12273 ft 270 kts 104°
2026-04-21 19:44 35.27880 -85.64247 12128 ft 270 kts 104°
2026-04-21 19:44 35.27446 -85.62008 11791 ft 273 kts 104°
2026-04-21 19:44 35.26998 -85.59752 11144 ft 280 kts 104°
2026-04-21 19:45 35.26528 -85.57407 10578 ft 285 kts 104°
2026-04-21 19:45 35.26070 -85.55091 10332 ft 275 kts 104°
2026-04-21 19:45 35.25636 -85.52863 10114 ft 264 kts 104°
2026-04-21 19:45 35.25245 -85.50717 9850 ft 254 kts 102°
2026-04-21 19:46 35.24953 -85.48608 9532 ft 249 kts 98°
2026-04-21 19:46 35.24748 -85.46513 9159 ft 248 kts 97°
2026-04-21 19:46 35.24570 -85.44415 8746 ft 248 kts 97°
2026-04-21 19:46 35.24406 -85.42305 8284 ft 250 kts 96°
2026-04-21 19:47 35.24278 -85.40180 7858 ft 251 kts 93°
2026-04-21 19:47 35.24247 -85.38077 7438 ft 251 kts 91°
2026-04-21 19:47 35.24256 -85.35951 7050 ft 249 kts 91°
2026-04-21 19:47 35.24287 -85.33852 6711 ft 245 kts 91°
2026-04-21 19:48 35.24334 -85.31784 6387 ft 241 kts 90°
2026-04-21 19:48 35.24383 -85.29753 6039 ft 237 kts 90°
2026-04-21 19:48 35.24433 -85.27746 5669 ft 235 kts 90°
2026-04-21 19:48 35.24471 -85.25753 5293 ft 233 kts 97°
2026-04-21 19:49 35.23974 -85.23928 4903 ft 227 kts 122°
2026-04-21 19:49 35.23187 -85.22289 4618 ft 226 kts 124°
2026-04-21 19:49 35.22374 -85.20648 4315 ft 225 kts 124°
2026-04-21 19:49 35.21544 -85.19040 4034 ft 220 kts 128°
2026-04-21 19:50 35.20927 -85.18080 4115 ft 203 kts 137°
2026-04-21 19:50 35.19609 -85.16784 4193 ft 176 kts 152°
2026-04-21 19:50 35.18491 -85.16039 3715 ft 188 kts 160°
2026-04-21 19:50 35.17248 -85.15535 3414 ft 200 kts 171°
2026-04-21 19:51 35.15825 -85.15429 3323 ft 197 kts 188°
2026-04-21 19:51 35.14527 -85.15764 2918 ft 196 kts 197°
2026-04-21 19:51 35.13108 -85.16351 2968 ft 215 kts 199°
2026-04-21 19:51 35.11817 -85.16858 2832 ft 175 kts 198°
2026-04-21 19:52 35.10762 -85.17284 2464 ft 149 kts 199°
2026-04-21 19:52 35.09663 -85.17738 2286 ft 175 kts 200°
2026-04-21 19:52 35.08607 -85.18192 2121 ft 160 kts 200°
2026-04-21 19:52 35.07584 -85.18639 1884 ft 166 kts 199°
2026-04-21 19:53 35.06542 -85.19081 1579 ft 151 kts 199°
2026-04-21 19:53 35.05442 -85.19551 1187 ft 163 kts 199°
2026-04-21 19:53 35.04457 -85.19946 823 ft 141 kts 197°
2026-04-21 19:53 35.03597 -85.20269 681 ft 117 kts 197°
2026-04-21 19:54 35.03001 -85.20483 683 ft 71 kts 196°
2026-04-21 19:54 35.02643 -85.20610 685 ft 33 kts 190°
2026-04-21 19:54 35.02572 -85.20548 686 ft 0 kts 107°
2026-04-21 19:55 35.02580 -85.20500 685 ft 15 kts 58°
2026-04-21 19:55 35.02624 -85.20473 689 ft 7 kts 13°
2026-04-21 19:55 35.02679 -85.20459 685 ft 10 kts 12°
2026-04-21 19:55 35.02751 -85.20435 684 ft 12 kts 17°
2026-04-21 19:56 35.02835 -85.20403 684 ft 14 kts 17°
2026-04-21 19:56 35.02935 -85.20367 684 ft 16 kts 16°
2026-04-21 19:56 35.03049 -85.20326 684 ft 18 kts 17°
2026-04-21 19:56 35.03173 -85.20274 680 ft 20 kts 29°
2026-04-21 19:57 35.03263 -85.20146 680 ft 21 kts 44°
2026-04-21 19:57 35.03398 -85.20077 680 ft 22 kts 16°
2026-04-21 19:57 35.03446 -85.20060 680 ft 1 kts 17°
2026-04-21 19:57 35.03451 -85.20058 682 ft 2 kts 17°
2026-04-21 19:58 35.03479 -85.20048 681 ft 7 kts 16°
2026-04-21 19:58 35.03538 -85.20026 679 ft 11 kts 17°
2026-04-21 19:58 35.03613 -85.19999 679 ft 11 kts 17°
2026-04-21 19:58 35.03684 -85.19972 679 ft 9 kts 17°
2026-04-21 19:59 35.03752 -85.19948 682 ft 11 kts 17°
2026-04-21 19:59 35.03833 -85.19918 676 ft 13 kts 16°
2026-04-21 19:59 35.03867 -85.19905 678 ft 1 kts 20°
2026-04-21 19:59 35.03884 -85.19893 701 ft 5 kts 36°
2026-04-21 20:00 35.03910 -85.19833 678 ft 11 kts 84°
2026-04-21 20:00 35.03875 -85.19761 678 ft 0 kts 150°
2026-04-21 20:01 35.03857 -85.19752 676 ft 5 kts 162°
2026-04-21 20:01 35.03827 -85.19754 681 ft 0 kts 195°
2026-04-21 20:01 35.03821 -85.19757 678 ft 1 kts 201°
2026-04-21 20:02 35.03816 -85.19759 678 ft 1 kts 201°
2026-04-21 20:02 35.03811 -85.19762 681 ft 0 kts 201°